Temp
-5 -5 -6 -6 -6 -6 -6 -6 -6 -6 -6 -6 -6 -6 -6 -6 -6 -6 -6 -6 -6 -6 -6 -6 -6 -6 -6 -6 -6 -6 -6 -6 -6 -6 -6 -6 -6 -6 -6 -6 -5 -5 -4
-6 -6 -6 -6 -6 -6 -6 -6 -6 -6 -6 -6 -6 -6 -6 -6 -6 -6 -6 -7 -6 -6 -6 -6 -6 -6 -6 -6 -6 -6 -6 -6 -6 -6 -6 -6 -6 -6 -6 -6 -6 -6 -5
-6 -6 -6 -6 -6 -6 -6 -6 -6 -6 -6 -6 -6 -6 -6 -6 -6 -6 -6 -6 -7 -6 -6 -6 -6 -6 -6 -6 -6 -6 -6 -7 -7 -6 -6 -6 -6 -6 -6 -6 -6 -6 -6
-6 -6 -6 -6 -6 -6 -6 -6 -6 -6 -6 -6 -6 -6 -6 -7 -7 -7 -7 -7 -7 -7 -7 -7 -7 -7 -7 -7 -7 -7 -7 -7 -7 -7 -7 -7 -7 -6 -7 -6 -7 -6 -6
-7 -7 -7 -7 -6 -7 -7 -7 -7 -7 -6 -6 -6 -7 -7 -7 -7 -7 -7 -7 -8 -7 -7 -7 -7 -7 -7 -8 -8 -8 -7 -7 -7 -7 -7 -7 -7 -7 -7 -7 -7 -7 -7
-7 -7 -7 -8 -8 -8 -7 -7 -7 -7 -7 -7 -7 -7 -7 -7 -7 -7 -7 -8 -8 -8 -8 -8 -8 -8 -8 -8 -8 -8 -8 -8 -8 -7 -7 -7 -7 -7 -7 -7 -7 -7 -7
-8 -8 -8 -8 -8 -8 -8 -8 -8 -7 -7 -7 -7 -7 -7 -7 -7 -7 -7 -8 -8 -9 -9 -9 -9 -8 -8 -8 -8 -8 -8 -8 -7 -7 -8 -7 -7 -7 -7 -7 -7 -7 -7
-8 -8 -8 -8 -8 -8 -8 -8 -9 -8 -8 -8 -7 -7 -7 -7 -7 -8 -8 -8 -8 -8 -8 -9 -9 -9 -9 -8 -8 -8 -8 -8 -8 -8 -8 -8 -7 -7 -7 -7 -7 -7 -7
-7 -7 -7 -7 -8 -9 -9 -9 -9 -9 -8 -8 -8 -8 -8 -8 -8 -8 -8 -8 -8 -9 -9 -9 -9 -9 -9 -9 -8 -8 -8 -8 -8 -8 -8 -8 -7 -7 -8 -7 -7 -7 -7
-8 -7 -7 -7 -7 -7 -8 -8 -9 -9 -9 -9 -9 -9 -8 -8 -8 -9 -8 -9 -9 -9 -9 -9 -9 -9 -9 -9 -9 -8 -9 -9 -9 -8 -8 -8 -8 -7 -7 -7 -7 -7 -7
-8 -8 -7 -7 -7 -8 -8 -8 -8 -8 -8 -9 -9 -9 -9 -9 -9 -9 -9 -9 -9 -9 -10 -10 -10 -10 -9 -9 -9 -9 -9 -9 -9 -9 -9 -9 -8 -8 -8 -8 -8 -7 -7
-8 -8 -8 -8 -8 -8 -8 -8 -9 -9 -9 -9 -9 -10 -9 -9 -9 -9 -9 -9 -9 -9 -10 -10 -10 -10 -10 -9 -9 -9 -9 -9 -9 -9 -9 -9 -8 -8 -8 -8 -8 -8 -8
-8 -8 -8 -8 -8 -8 -8 -8 -8 -8 -9 -9 -9 -9 -10 -10 -9 -9 -9 -9 -9 -9 -10 -10 -10 -10 -10 -10 -10 -9 -9 -9 -9 -9 -9 -9 -9 -8 -8 -8 -8 -8 -8
-9 -9 -9 -9 -8 -8 -9 -8 -9 -9 -9 -9 -9 -9 -9 -9 -10 -9 -9 -9 -10 -10 -10 -11 -10 -11 -10 -10 -11 -10 -9 -9 -9 -10 -10 -10 -9 -9 -9 -9 -8 -9 -8
-9 -9 -9 -9 -9 -9 -9 -9 -9 -9 -9 -9 -9 -9 -9 -9 -10 -10 -10 -10 -11 -11 -11 -11 -11 -11 -11 -11 -10 -10 -10 -10 -10 -10 -10 -10 -10 -9 -9 -9 -9 -9 -9
-10 -10 -9 -9 -9 -9 -9 -9 -9 -9 -9 -10 -10 -10 -10 -9 -10 -10 -10 -11 -11 -11 -12 -11 -11 -11 -11 -10 -10 -10 -10 -10 -10 -10 -10 -10 -10 -10 -9 -9 -9 -9 -9
-11 -11 -10 -10 -10 -10 -10 -10 -10 -10 -10 -10 -10 -10 -10 -10 -10 -10 -11 -11 -12 -12 -11 -11 -11 -10 -10 -10 -10 -10 -10 -10 -11 -10 -10 -10 -10 -10 -10 -9 -10 -10 -10
-11 -11 -11 -11 -11 -10 -10 -10 -10 -10 -10 -10 -10 -10 -11 -10 -10 -10 -11 -11 -11 -11 -11 -11 -11 -11 -11 -11 -10 -10 -11 -11 -11 -10 -10 -10 -10 -10 -10 -11 -10 -11 -11
-11 -12 -12 -11 -12 -12 -11 -11 -11 -11 -11 -10 -10 -10 -11 -11 -10 -11 -11 -11 -11 -11 -11 -11 -11 -11 -11 -11 -11 -11 -11 -11 -11 -11 -11 -10 -10 -10 -11 -11 -11 -11 -11
-13 -13 -13 -13 -12 -12 -12 -12 -11 -11 -11 -11 -10 -11 -11 -11 -11 -10 -11 -11 -11 -11 -11 -11 -11 -11 -11 -11 -11 -11 -11 -11 -11 -11 -11 -11 -11 -12 -12 -12 -12 -11 -11
-14 -14 -13 -13 -13 -13 -13 -13 -12 -12 -12 -12 -11 -11 -11 -11 -11 -11 -11 -11 -11 -11 -11 -11 -11 -11 -11 -11 -11 -11 -11 -11 -11 -11 -11 -12 -12 -12 -12 -12 -12 -12 -12
-14 -14 -14 -14 -14 -14 -13 -13 -12 -13 -12 -12 -12 -12 -12 -12 -12 -11 -11 -11 -11 -11 -11 -11 -11 -11 -11 -11 -12 -11 -11 -11 -11 -12 -12 -12 -12 -12 -12 -13 -13 -13 -13
-14 -14 -14 -14 -14 -14 -14 -14 -13 -13 -12 -13 -13 -12 -12 -12 -12 -11 -11 -11 -11 -11 -11 -11 -11 -11 -11 -12 -12 -11 -11 -11 -11 -12 -13 -13 -13 -13 -13 -13 -14 -14 -14
-15 -15 -15 -15 -15 -15 -15 -15 -14 -14 -13 -14 -13 -12 -13 -12 -12 -12 -12 -12 -12 -11 -11 -11 -11 -11 -12 -12 -12 -11 -11 -12 -12 -13 -13 -13 -13 -13 -14 -14 -14 -14 -14
-16 -15 -15 -15 -15 -15 -15 -16 -15 -15 -14 -14 -13 -13 -13 -13 -12 -12 -12 -12 -12 -12 -12 -12 -12 -12 -12 -12 -12 -12 -12 -12 -13 -14 -14 -14 -14 -14 -14 -14 -15 -15 -14
-16 -16 -15 -15 -15 -15 -15 -16 -16 -16 -15 -15 -14 -14 -13 -13 -13 -13 -13 -12 -12 -12 -12 -12 -12 -12 -12 -12 -12 -13 -13 -13 -14 -14 -14 -14 -14 -14 -15 -15 -15 -15 -15
Height
5885 5885 5884 5885 5884 5884 5884 5885 5884 5884 5884 5883 5882 5882 5881 5881 5881 5879 5878 5877 5877 5877 5876 5875 5875 5876 5874 5872 5871 5870 5868 5867 5866 5865 5863 5861 5859 5857 5856 5854 5851 5849 5848
5883 5883 5882 5883 5882 5882 5881 5881 5881 5881 5879 5880 5879 5879 5878 5877 5877 5877 5877 5875 5874 5873 5873 5874 5873 5873 5872 5870 5869 5868 5866 5865 5863 5862 5861 5859 5857 5855 5853 5853 5849 5846 5845
5882 5880 5880 5880 5880 5879 5878 5878 5877 5876 5876 5875 5875 5875 5875 5874 5873 5874 5873 5872 5872 5872 5871 5871 5870 5870 5870 5868 5866 5865 5864 5862 5861 5860 5858 5857 5854 5852 5851 5850 5848 5844 5843
5882 5881 5880 5879 5878 5877 5877 5877 5876 5875 5873 5872 5871 5870 5870 5870 5870 5869 5870 5869 5868 5869 5869 5868 5867 5867 5866 5866 5864 5863 5862 5860 5859 5857 5856 5855 5852 5851 5848 5848 5846 5842 5841
5877 5877 5877 5876 5876 5875 5874 5874 5873 5872 5872 5871 5870 5868 5867 5867 5867 5866 5866 5866 5867 5866 5866 5865 5865 5864 5863 5863 5862 5860 5860 5858 5856 5855 5853 5852 5849 5848 5847 5845 5844 5842 5838
5872 5872 5871 5871 5871 5871 5871 5870 5869 5869 5869 5868 5867 5866 5865 5865 5865 5864 5865 5864 5864 5865 5863 5862 5861 5862 5861 5860 5859 5857 5856 5855 5854 5853 5851 5849 5846 5846 5844 5843 5842 5840 5837
5869 5868 5868 5867 5866 5866 5866 5866 5866 5866 5864 5864 5863 5863 5862 5862 5862 5862 5862 5863 5862 5861 5860 5859 5859 5858 5857 5858 5856 5855 5853 5853 5851 5850 5849 5845 5843 5843 5841 5840 5839 5837 5835
5863 5862 5861 5862 5862 5861 5861 5860 5861 5862 5861 5861 5861 5860 5858 5858 5858 5857 5858 5858 5858 5857 5857 5856 5857 5856 5855 5854 5852 5851 5850 5850 5849 5847 5844 5841 5841 5839 5839 5838 5835 5834 5832
5860 5859 5857 5856 5855 5854 5855 5855 5855 5857 5858 5857 5857 5857 5857 5856 5855 5854 5853 5853 5853 5852 5852 5852 5853 5852 5852 5850 5849 5848 5847 5846 5845 5843 5840 5839 5837 5836 5835 5834 5832 5830 5829
5854 5853 5853 5852 5852 5851 5851 5850 5850 5850 5852 5853 5853 5853 5853 5853 5851 5851 5850 5850 5848 5848 5848 5848 5848 5848 5848 5846 5846 5844 5842 5842 5840 5838 5837 5835 5834 5832 5831 5830 5828 5826 5825
5850 5849 5847 5847 5847 5847 5846 5847 5845 5845 5846 5847 5847 5849 5849 5849 5847 5847 5846 5845 5844 5843 5843 5844 5844 5844 5844 5843 5842 5840 5838 5836 5835 5834 5833 5830 5829 5828 5826 5826 5825 5823 5821
5843 5842 5841 5842 5842 5842 5841 5841 5841 5841 5841 5840 5841 5842 5843 5843 5843 5843 5841 5841 5839 5839 5839 5838 5839 5839 5839 5839 5838 5836 5833 5831 5830 5829 5827 5825 5824 5823 5822 5821 5820 5819 5818
5837 5836 5834 5833 5833 5834 5835 5835 5835 5836 5836 5836 5835 5836 5837 5837 5837 5837 5837 5836 5834 5832 5834 5834 5834 5834 5834 5833 5833 5831 5829 5826 5826 5823 5822 5820 5818 5816 5816 5816 5815 5814 5814
5833 5830 5828 5826 5827 5827 5827 5828 5829 5830 5830 5830 5830 5830 5830 5830 5831 5831 5831 5831 5829 5827 5829 5829 5829 5829 5829 5828 5827 5826 5823 5821 5820 5817 5816 5815 5813 5811 5811 5810 5810 5809 5809
5824 5820 5821 5819 5820 5820 5820 5820 5821 5822 5823 5823 5823 5824 5824 5824 5824 5824 5824 5825 5824 5822 5823 5822 5824 5824 5823 5823 5822 5820 5819 5816 5814 5811 5811 5810 5807 5806 5805 5805 5804 5804 5803
5813 5814 5811 5812 5812 5812 5813 5813 5813 5813 5814 5816 5816 5817 5818 5818 5819 5819 5818 5818 5819 5819 5819 5819 5820 5818 5818 5817 5815 5815 5813 5811 5808 5805 5804 5803 5802 5801 5799 5798 5798 5798 5797
5799 5800 5802 5804 5802 5804 5803 5803 5804 5806 5807 5807 5809 5810 5811 5812 5812 5812 5813 5811 5811 5813 5813 5814 5813 5813 5812 5811 5809 5809 5807 5806 5803 5800 5799 5797 5795 5794 5792 5791 5791 5792 5792
5788 5790 5790 5791 5793 5795 5795 5793 5796 5798 5800 5801 5801 5802 5803 5805 5805 5806 5807 5806 5807 5808 5808 5808 5807 5806 5805 5805 5804 5803 5801 5799 5797 5796 5793 5790 5787 5788 5788 5786 5784 5785 5784
5774 5777 5780 5782 5782 5783 5785 5787 5788 5788 5794 5795 5795 5796 5797 5798 5799 5800 5801 5801 5803 5803 5802 5802 5801 5801 5800 5798 5797 5796 5794 5793 5791 5790 5788 5785 5781 5781 5782 5781 5780 5777 5777
5763 5765 5769 5771 5772 5774 5775 5778 5780 5782 5785 5787 5788 5789 5791 5791 5793 5793 5794 5795 5796 5797 5796 5796 5795 5794 5794 5792 5791 5790 5787 5786 5784 5781 5779 5778 5777 5775 5775 5775 5774 5772 5771
5750 5753 5757 5759 5763 5763 5767 5769 5771 5774 5775 5779 5780 5780 5783 5785 5786 5786 5787 5788 5789 5790 5790 5790 5790 5788 5787 5786 5784 5782 5781 5778 5777 5774 5771 5770 5770 5769 5767 5768 5768 5767 5766
5740 5742 5745 5749 5750 5753 5756 5759 5762 5763 5765 5770 5772 5773 5773 5777 5779 5779 5779 5782 5782 5783 5783 5783 5783 5781 5780 5778 5776 5775 5773 5771 5768 5766 5764 5763 5762 5762 5762 5761 5760 5761 5761
5729 5730 5734 5738 5740 5742 5744 5747 5751 5754 5756 5761 5765 5766 5767 5770 5771 5773 5773 5774 5775 5776 5776 5776 5775 5773 5772 5771 5769 5768 5765 5763 5761 5759 5757 5757 5756 5756 5755 5754 5755 5754 5754
5719 5721 5723 5725 5730 5733 5734 5737 5742 5744 5747 5750 5754 5757 5761 5762 5764 5767 5767 5767 5768 5769 5769 5768 5767 5766 5765 5763 5761 5759 5756 5754 5752 5751 5750 5750 5750 5749 5749 5749 5749 5749 5749
5709 5711 5713 5716 5720 5721 5724 5728 5731 5734 5738 5741 5745 5749 5753 5755 5757 5760 5761 5761 5762 5763 5763 5762 5760 5759 5757 5755 5753 5751 5748 5746 5745 5743 5743 5743 5743 5743 5743 5743 5744 5743 5744
5700 5702 5703 5705 5709 5709 5711 5715 5721 5726 5729 5733 5738 5741 5744 5747 5750 5753 5755 5756 5756 5757 5756 5755 5753 5752 5750 5748 5745 5742 5740 5739 5737 5736 5736 5737 5736 5737 5737 5737 5739 5739 5739
Wind_Speed
8 7 7 9 9 9 11 12 12 12 12 13 13 14 15 15 15 14 13 13 13 13 13 14 15 16 15 16 17 17 17 17 17 18 17 17 18 17 18 17 18 18 18
9 10 10 11 12 13 13 14 15 15 14 14 15 15 15 15 15 15 14 12 12 11 12 13 13 15 15 14 15 16 16 16 17 18 19 18 18 18 18 18 17 17 18
12 12 13 14 15 16 16 17 17 16 17 16 16 17 16 16 15 15 13 12 12 12 12 13 14 15 16 15 14 15 16 16 17 18 19 19 17 18 18 18 18 18 17
18 18 17 17 17 19 20 20 20 20 19 19 17 17 17 17 17 15 14 12 12 13 15 15 14 15 15 14 13 14 14 15 17 18 19 20 19 19 19 19 17 17 17
17 18 16 18 20 20 20 21 21 21 22 22 22 20 19 18 18 16 15 13 13 14 14 14 14 14 12 12 14 14 15 16 17 19 20 21 20 20 21 20 19 17 18
20 21 20 20 21 20 20 20 21 21 22 22 22 21 20 19 20 19 17 15 14 14 14 13 12 12 14 15 16 16 16 17 18 19 20 20 20 21 22 22 21 19 18
22 22 25 29 28 25 23 23 24 24 22 23 20 18 19 19 20 20 20 18 16 14 14 14 14 15 15 17 19 19 19 20 20 20 21 20 20 21 20 20 21 19 19
29 30 29 27 26 24 25 24 23 23 21 21 20 19 18 18 19 20 20 19 18 17 16 16 17 18 18 18 20 21 21 23 23 22 22 22 22 22 20 21 20 19 18
26 27 27 26 26 24 22 22 23 24 24 23 22 20 21 20 21 20 21 20 20 20 19 18 19 19 21 21 22 23 23 24 25 25 23 23 23 24 24 22 21 21 19
28 28 26 25 24 26 26 25 25 25 26 25 25 22 22 22 22 23 23 23 23 23 23 21 21 21 22 23 26 26 26 26 27 27 26 23 24 24 25 26 23 21 20
27 30 29 28 27 26 27 27 27 26 26 26 25 25 25 24 23 25 26 25 27 28 26 23 23 24 24 25 26 27 27 28 28 26 26 26 26 26 27 28 25 22 21
27 27 29 29 30 29 28 26 25 25 24 24 25 26 26 27 27 27 27 29 31 29 28 27 24 24 24 25 28 30 29 28 29 27 26 27 27 29 29 29 27 23 21
30 30 32 31 29 30 31 30 27 25 25 25 24 24 24 27 29 29 29 29 32 31 28 25 25 25 23 23 25 26 29 29 31 28 29 28 29 28 30 29 27 25 24
31 33 33 35 34 33 32 33 32 30 28 28 28 24 24 24 27 30 32 32 33 31 28 25 25 24 23 22 26 28 29 30 30 29 29 29 29 28 28 27 26 27 26
34 37 36 38 37 38 36 35 35 34 32 29 29 29 26 24 24 26 29 32 31 29 28 28 25 28 26 26 28 28 29 31 31 29 30 29 30 29 28 27 26 27 27
39 39 42 40 40 39 39 39 36 36 33 33 30 30 29 26 25 25 25 27 29 28 27 27 27 25 26 26 28 29 30 29 29 30 32 31 30 29 29 29 28 27 28
41 41 42 43 44 41 40 40 40 36 34 32 32 29 29 27 24 25 24 26 26 28 23 28 29 28 29 30 30 30 29 28 28 30 32 32 31 31 30 31 29 27 29
46 44 44 44 44 44 43 41 39 37 34 34 32 30 28 24 23 25 23 23 26 26 27 28 28 29 30 30 31 31 30 28 29 30 34 34 33 28 27 27 30 28 27
51 44 41 44 43 43 43 42 39 39 34 35 32 31 28 25 24 25 26 26 27 27 28 28 28 30 31 31 31 32 32 31 31 32 33 34 33 30 22 22 25 28 28
48 45 39 38 42 41 41 40 39 39 34 34 33 32 29 27 28 27 26 26 26 27 27 27 29 30 31 32 32 33 32 32 33 35 36 32 29 29 23 22 25 26 26
42 36 38 38 38 42 39 39 38 38 37 34 34 33 30 30 29 27 27 26 25 26 26 27 28 30 31 33 33 32 32 34 35 38 34 29 26 25 25 24 23 21 21
35 34 33 38 41 39 37 38 39 39 39 35 35 33 32 32 30 29 27 27 27 26 26 26 28 29 32 32 33 33 34 36 37 35 31 29 26 26 25 24 23 21 16
33 37 40 39 41 38 37 37 37 40 40 33 34 36 34 32 32 31 28 28 29 26 26 26 28 30 31 31 34 35 36 38 35 31 30 28 27 25 24 22 23 24 26
40 45 46 46 43 40 38 34 35 38 38 33 35 37 33 33 34 31 29 27 28 26 27 28 29 29 29 31 35 38 38 36 33 31 29 28 25 22 18 23 26 29 28
36 43 45 43 39 42 37 35 34 36 36 33 35 34 32 34 33 31 29 27 27 26 27 28 27 27 29 32 37 37 36 31 27 28 27 25 22 21 20 24 27 33 32
32 28 32 27 30 30 35 40 36 35 36 35 32 34 35 34 32 30 30 28 26 26 26 26 25 26 30 33 32 29 27 26 23 21 22 22 21 19 20 23 27 27 20
Wind_Direction
268 267 270 278 277 277 278 283 282 282 283 286 286 286 287 288 287 285 288 290 291 300 304 306 306 301 302 302 302 299 302 304 305 304 305 310 313 316 318 322 324 326 331
266 274 275 275 277 277 279 281 284 285 284 285 286 285 285 283 282 285 288 291 294 299 305 306 304 305 306 304 306 303 303 305 308 307 305 305 308 314 319 320 319 320 323
272 274 277 279 281 283 283 283 281 282 285 284 283 284 283 281 282 284 284 285 292 295 296 295 298 300 300 301 303 305 304 307 306 305 308 311 312 313 314 315 316 318 320
296 295 292 292 294 294 292 291 291 290 286 283 281 280 280 280 280 279 276 277 282 290 295 297 297 301 300 301 307 312 314 316 315 312 311 308 313 314 316 316 315 314 313
282 284 281 285 292 296 293 292 293 293 294 295 292 288 284 280 276 274 272 275 282 286 289 296 298 299 301 306 308 313 315 316 318 320 317 313 316 317 317 316 316 317 320
280 279 278 287 293 295 295 296 295 296 294 292 290 290 292 289 283 277 277 277 278 285 293 293 294 295 299 301 305 309 310 313 317 317 317 318 322 318 314 314 314 319 321
283 282 285 289 290 289 291 296 301 298 288 288 286 286 289 290 283 278 273 277 282 287 291 292 290 296 297 299 305 306 306 309 311 310 311 318 318 317 320 314 311 313 316
287 287 286 286 286 283 284 287 288 287 285 289 288 285 282 280 273 271 271 272 280 284 285 287 288 296 296 297 299 301 303 303 303 302 307 312 314 315 312 311 313 313 317
285 286 288 287 284 283 285 286 285 280 279 281 283 285 285 283 275 269 268 267 271 275 275 278 285 287 291 296 296 300 305 304 300 300 301 305 307 311 308 309 310 310 311
294 295 293 287 286 287 288 283 280 279 277 274 279 283 284 281 278 275 272 271 271 274 277 278 279 283 289 293 295 301 302 299 299 298 296 299 300 299 302 302 303 305 305
292 295 293 289 288 289 287 287 282 280 278 276 275 276 278 281 280 277 275 271 272 272 273 275 278 286 289 293 298 298 298 296 303 297 296 298 299 297 301 300 299 300 301
279 278 280 285 288 282 280 282 283 284 282 281 277 269 271 274 279 279 278 275 274 272 274 278 281 282 284 289 290 294 293 298 299 299 297 296 296 297 298 296 297 298 300
276 275 275 273 269 273 278 276 274 276 279 281 277 278 272 268 271 277 279 277 275 275 274 279 283 282 284 282 283 289 292 294 295 297 295 294 292 296 295 293 292 293 296
276 274 273 271 271 270 269 273 273 271 271 275 278 277 273 272 272 270 274 277 273 273 274 275 276 276 288 292 290 288 293 293 293 297 295 294 293 296 295 290 289 291 293
270 267 266 265 266 267 267 266 269 270 269 269 270 272 274 272 271 273 272 273 275 274 274 277 275 287 287 288 291 291 292 294 296 297 294 294 295 297 292 289 286 286 289
271 269 266 263 262 260 261 263 262 263 266 267 265 267 268 265 267 270 268 270 269 268 271 282 279 286 287 289 289 289 291 293 294 293 294 296 294 294 290 286 286 285 286
264 263 266 265 262 259 256 258 259 258 258 260 262 261 261 262 259 257 258 271 272 281 272 275 283 285 290 293 293 293 293 293 292 293 291 292 293 294 289 286 286 287 287
270 264 259 260 262 262 259 255 259 261 258 254 254 257 260 256 252 254 258 264 268 274 277 281 284 287 289 290 291 291 291 293 293 293 293 293 293 286 280 282 287 292 289
277 268 262 262 262 260 259 259 255 255 255 255 252 252 255 253 251 250 254 259 268 272 279 282 286 288 289 289 290 291 292 292 291 291 291 290 289 289 287 283 286 289 290
279 276 264 261 262 263 259 257 255 255 251 250 253 251 251 248 246 248 253 260 266 272 276 281 285 285 286 287 289 290 292 292 292 292 290 286 285 288 285 287 286 286 289
281 275 269 260 257 258 258 254 252 252 248 247 247 247 247 249 246 247 252 258 263 268 274 279 280 282 286 289 291 292 292 291 290 289 287 282 278 278 285 288 287 284 282
275 265 258 255 254 251 248 249 246 246 248 246 246 244 243 245 248 247 250 258 261 265 270 277 280 285 287 290 292 292 293 292 290 287 281 279 278 277 281 283 281 276 279
258 260 260 252 250 243 239 241 237 241 244 245 245 244 244 245 246 248 248 255 261 267 274 278 281 284 288 291 293 292 292 290 288 282 277 274 273 274 278 269 263 271 273
255 253 253 252 250 246 236 237 236 236 237 236 237 243 245 245 247 249 250 254 261 268 273 275 278 284 289 292 291 292 292 290 287 279 271 267 268 269 254 251 261 268 273
254 253 254 249 249 235 229 228 235 238 238 237 237 241 245 245 248 249 251 253 259 264 266 271 278 284 289 293 294 293 292 290 281 272 268 263 260 264 250 255 262 265 269
255 254 251 239 247 250 224 220 227 235 239 237 239 239 241 243 246 248 251 251 254 259 264 273 280 289 294 296 298 298 295 290 284 273 267 263 263 261 258 255 252 262 259